CYP111 LLBG-LCLK

Flight info

Callsign CYP111
Flight time 0h 39m
Altitude 28000
Route DAFNA DCT VELOX N131 EMEDA
Aircraft A320/M-SDE3FGHIRWY/LB1

Departure

Time 2026-05-07 15:59
Airport Ben Gurion International Airport (LLBG)

Arrival

Time 2026-05-07 16:38
Airport Larnaca International Airport (LCLK)
Time Latitude Longitude Altitude Speed Heading
2026-05-07 15:20 32.00591 34.87352 119 ft 0 kts 182°
2026-05-07 15:49 32.00598 34.87353 117 ft 4 kts 177°
2026-05-07 15:49 32.00620 34.87344 116 ft 4 kts 129°
2026-05-07 15:50 32.00634 34.87318 116 ft 4 kts 131°
2026-05-07 15:50 32.00648 34.87308 115 ft 3 kts 182°
2026-05-07 15:50 32.00674 34.87305 119 ft 4 kts 165°
2026-05-07 15:50 32.00700 34.87300 116 ft 3 kts 185°
2026-05-07 15:51 32.00726 34.87305 117 ft 4 kts 203°
2026-05-07 15:51 32.00747 34.87321 115 ft 4 kts 235°
2026-05-07 15:51 32.00757 34.87349 116 ft 4 kts 270°
2026-05-07 15:51 32.00752 34.87379 116 ft 3 kts 299°
2026-05-07 15:52 32.00750 34.87383 116 ft 0 kts 302°
2026-05-07 15:53 32.00763 34.87361 117 ft 7 kts 308°
2026-05-07 15:53 32.00812 34.87347 120 ft 10 kts 19°
2026-05-07 15:54 32.00799 34.87446 118 ft 19 kts 126°
2026-05-07 15:54 32.00732 34.87583 118 ft 19 kts 121°
2026-05-07 15:54 32.00664 34.87713 120 ft 18 kts 121°
2026-05-07 15:54 32.00599 34.87837 118 ft 17 kts 121°
2026-05-07 15:55 32.00625 34.87945 119 ft 16 kts 28°
2026-05-07 15:55 32.00725 34.88016 117 ft 17 kts 32°
2026-05-07 15:55 32.00825 34.88091 117 ft 17 kts 32°
2026-05-07 15:55 32.00925 34.88162 119 ft 17 kts 31°
2026-05-07 15:56 32.01025 34.88235 119 ft 17 kts 32°
2026-05-07 15:56 32.01123 34.88308 118 ft 17 kts 31°
2026-05-07 15:56 32.01238 34.88386 121 ft 22 kts 34°
2026-05-07 15:56 32.01365 34.88512 119 ft 25 kts 47°
2026-05-07 15:57 32.01459 34.88687 119 ft 26 kts 64°
2026-05-07 15:57 32.01505 34.88899 118 ft 28 kts 78°
2026-05-07 15:57 32.01542 34.89129 120 ft 29 kts 77°
2026-05-07 15:57 32.01578 34.89367 116 ft 30 kts 80°
2026-05-07 15:58 32.01617 34.89606 117 ft 29 kts 78°
2026-05-07 15:58 32.01740 34.89744 118 ft 24 kts 28°
2026-05-07 15:58 32.01843 34.89691 118 ft 27 kts 256°
2026-05-07 15:58 32.01788 34.89346 117 ft 73 kts 259°
2026-05-07 15:59 32.01708 34.88832 121 ft 116 kts 259°
2026-05-07 15:59 32.01464 34.87236 304 ft 169 kts 266°
2026-05-07 15:59 32.01241 34.85847 980 ft 174 kts 266°
2026-05-07 15:59 32.00969 34.84453 1769 ft 174 kts 264°
2026-05-07 16:00 32.00677 34.83020 2325 ft 190 kts 261°
2026-05-07 16:00 32.00356 34.81436 2700 ft 212 kts 264°
2026-05-07 16:00 31.99994 34.79648 3090 ft 235 kts 258°
2026-05-07 16:00 31.99591 34.77679 3553 ft 258 kts 258°
2026-05-07 16:01 31.99255 34.75562 4385 ft 266 kts 270°
2026-05-07 16:01 31.99579 34.73448 5338 ft 267 kts 290°
2026-05-07 16:01 32.00222 34.71382 6341 ft 268 kts 291°
2026-05-07 16:01 32.00877 34.69295 7230 ft 273 kts 290°
2026-05-07 16:02 32.01534 34.67203 7793 ft 278 kts 290°
2026-05-07 16:02 32.02200 34.65069 8010 ft 275 kts 290°
2026-05-07 16:02 32.02678 34.62879 8839 ft 278 kts 275°
2026-05-07 16:02 32.02805 34.60600 9853 ft 278 kts 273°
2026-05-07 16:03 32.02926 34.58305 10413 ft 294 kts 273°
2026-05-07 16:03 32.03058 34.55791 10691 ft 317 kts 273°
2026-05-07 16:03 32.03199 34.53155 11187 ft 330 kts 274°
2026-05-07 16:03 32.03486 34.50425 11824 ft 339 kts 286°
2026-05-07 16:04 32.04620 34.47971 12650 ft 343 kts 309°
2026-05-07 16:04 32.06462 34.46202 13472 ft 350 kts 330°
2026-05-07 16:04 32.08810 34.45338 14159 ft 360 kts 351°
2026-05-07 16:04 32.11343 34.45472 14886 ft 365 kts
2026-05-07 16:05 32.13842 34.45800 15635 ft 365 kts
2026-05-07 16:05 32.16378 34.46145 16367 ft 367 kts
2026-05-07 16:05 32.18937 34.46495 17073 ft 369 kts
2026-05-07 16:05 32.21480 34.46841 17780 ft 371 kts
2026-05-07 16:06 32.24050 34.47187 18467 ft 373 kts
2026-05-07 16:06 32.26643 34.47532 19056 ft 376 kts
2026-05-07 16:06 32.29264 34.47620 19597 ft 377 kts 352°
2026-05-07 16:06 32.31836 34.47037 20178 ft 376 kts 340°
2026-05-07 16:07 32.34211 34.45828 20784 ft 376 kts 328°
2026-05-07 16:07 32.36341 34.44020 21381 ft 377 kts 317°
2026-05-07 16:07 32.38232 34.41831 21977 ft 379 kts 314°
2026-05-07 16:07 32.40093 34.39652 22544 ft 381 kts 315°
2026-05-07 16:08 32.41995 34.37431 23104 ft 384 kts 315°
2026-05-07 16:08 32.43907 34.35200 23641 ft 387 kts 315°
2026-05-07 16:08 32.45810 34.32977 24084 ft 389 kts 314°
2026-05-07 16:08 32.47742 34.30720 24521 ft 391 kts 314°
2026-05-07 16:09 32.49692 34.28440 24954 ft 394 kts 314°
2026-05-07 16:09 32.51694 34.26205 25364 ft 397 kts 320°
2026-05-07 16:09 32.54000 34.24367 25763 ft 401 kts 330°
2026-05-07 16:09 32.56562 34.23093 26154 ft 407 kts 340°
2026-05-07 16:10 32.59355 34.22408 26532 ft 413 kts 350°
2026-05-07 16:10 32.62237 34.22077 26945 ft 416 kts 351°
2026-05-07 16:10 32.65129 34.21754 27323 ft 418 kts 351°
2026-05-07 16:10 32.68005 34.21432 27701 ft 420 kts 351°
2026-05-07 16:11 32.70933 34.21101 28017 ft 422 kts 351°
2026-05-07 16:11 32.76696 34.20449 28084 ft 411 kts 351°
2026-05-07 16:12 32.82392 34.19811 28089 ft 409 kts 351°
2026-05-07 16:12 32.88021 34.19177 28097 ft 408 kts 351°
2026-05-07 16:13 32.93686 34.18524 28084 ft 407 kts 351°
2026-05-07 16:13 32.99297 34.17870 28090 ft 407 kts 351°
2026-05-07 16:14 33.04007 34.17327 28091 ft 407 kts 351°
2026-05-07 16:14 33.10579 34.16587 28107 ft 407 kts 351°
2026-05-07 16:15 33.15268 34.16055 28101 ft 406 kts 351°
2026-05-07 16:15 33.20914 34.15398 28101 ft 406 kts 351°
2026-05-07 16:16 33.26508 34.14740 28099 ft 405 kts 351°
2026-05-07 16:16 33.32105 34.14089 28097 ft 405 kts 351°
2026-05-07 16:17 33.37744 34.13444 28092 ft 405 kts 351°
2026-05-07 16:17 33.43335 34.12804 28090 ft 405 kts 351°
2026-05-07 16:18 33.48929 34.12156 28092 ft 405 kts 351°
2026-05-07 16:18 33.54564 34.11497 28103 ft 405 kts 351°
2026-05-07 16:19 33.60146 34.10844 28106 ft 404 kts 351°
2026-05-07 16:19 33.65763 34.10191 28102 ft 404 kts 351°
2026-05-07 16:20 33.71345 34.09542 28095 ft 404 kts 351°
2026-05-07 16:20 33.76994 34.08886 28100 ft 414 kts 352°
2026-05-07 16:21 33.82683 34.07891 28095 ft 414 kts 342°
2026-05-07 16:21 33.85422 34.06809 27286 ft 415 kts 339°
2026-05-07 16:21 33.88166 34.05668 26361 ft 417 kts 339°
2026-05-07 16:21 33.90872 34.04524 25637 ft 414 kts 338°
2026-05-07 16:22 33.93582 34.03374 24962 ft 410 kts 338°
2026-05-07 16:22 33.96274 34.02233 24316 ft 406 kts 338°
2026-05-07 16:22 33.98902 34.01127 23719 ft 402 kts 339°
2026-05-07 16:22 34.01543 34.00020 22978 ft 399 kts 339°
2026-05-07 16:23 34.04172 33.98920 22296 ft 396 kts 339°
2026-05-07 16:23 34.06774 33.97833 21663 ft 393 kts 339°
2026-05-07 16:23 34.09345 33.96758 21051 ft 389 kts 339°
2026-05-07 16:23 34.11864 33.95699 20458 ft 387 kts 339°
2026-05-07 16:24 34.14402 33.94629 19881 ft 383 kts 339°
2026-05-07 16:24 34.16921 33.93564 19353 ft 380 kts 339°
2026-05-07 16:24 34.19417 33.92511 18782 ft 379 kts 339°
2026-05-07 16:24 34.21874 33.91474 18259 ft 375 kts 339°
2026-05-07 16:25 34.24332 33.90436 17735 ft 371 kts 339°
2026-05-07 16:25 34.26768 33.89409 17220 ft 367 kts 339°
2026-05-07 16:25 34.29171 33.88394 16718 ft 363 kts 339°
2026-05-07 16:25 34.31552 33.87386 16232 ft 360 kts 340°
2026-05-07 16:26 34.33880 33.86400 15749 ft 356 kts 340°
2026-05-07 16:26 34.36220 33.85407 15266 ft 354 kts 340°
2026-05-07 16:26 34.38545 33.84423 14786 ft 351 kts 340°
2026-05-07 16:26 34.40829 33.83458 14312 ft 349 kts 340°
2026-05-07 16:27 34.43132 33.82484 13817 ft 348 kts 341°
2026-05-07 16:27 34.45389 33.81530 13302 ft 346 kts 341°
2026-05-07 16:27 34.47662 33.80567 12814 ft 343 kts 341°
2026-05-07 16:27 34.49914 33.79600 12307 ft 340 kts 340°
2026-05-07 16:28 34.52105 33.78628 11830 ft 337 kts 340°
2026-05-07 16:28 34.54305 33.77637 11327 ft 335 kts 340°
2026-05-07 16:28 34.56481 33.76649 10827 ft 333 kts 340°
2026-05-07 16:28 34.58643 33.75670 10510 ft 325 kts 340°
2026-05-07 16:29 34.60707 33.74792 10391 ft 311 kts 346°
2026-05-07 16:29 34.62809 33.74454 10273 ft 298 kts
2026-05-07 16:29 34.64831 33.74741 10075 ft 290 kts 13°
2026-05-07 16:29 34.66775 33.75333 9926 ft 288 kts 14°
2026-05-07 16:30 34.68715 33.75920 9489 ft 288 kts 14°
2026-05-07 16:30 34.70643 33.76500 9131 ft 284 kts 14°
2026-05-07 16:30 34.72562 33.77077 8727 ft 282 kts 14°
2026-05-07 16:30 34.74445 33.77643 8352 ft 279 kts 14°
2026-05-07 16:31 34.76319 33.78206 7886 ft 273 kts 14°
2026-05-07 16:31 34.78132 33.78751 7230 ft 269 kts 14°
2026-05-07 16:31 34.79936 33.79293 6603 ft 264 kts 14°
2026-05-07 16:31 34.81706 33.79826 5931 ft 259 kts 14°
2026-05-07 16:32 34.83455 33.80352 5396 ft 258 kts 13°
2026-05-07 16:32 34.85203 33.80876 5012 ft 255 kts 13°
2026-05-07 16:32 34.86854 33.81373 4954 ft 239 kts 13°
2026-05-07 16:32 34.88428 33.81850 4882 ft 225 kts 13°
2026-05-07 16:33 34.89904 33.82297 4795 ft 212 kts 13°
2026-05-07 16:33 34.91325 33.82728 4700 ft 210 kts 13°
2026-05-07 16:33 34.92753 33.83074 4517 ft 212 kts
2026-05-07 16:33 34.94218 33.82909 4202 ft 210 kts 345°
2026-05-07 16:34 34.95554 33.82203 3905 ft 210 kts 327°
2026-05-07 16:34 34.96634 33.81039 3607 ft 210 kts 310°
2026-05-07 16:34 34.97380 33.79503 3318 ft 211 kts 292°
2026-05-07 16:34 34.97699 33.77754 3020 ft 212 kts 274°
2026-05-07 16:35 34.97556 33.75965 2733 ft 213 kts 256°
2026-05-07 16:35 34.96961 33.74313 2424 ft 214 kts 236°
2026-05-07 16:35 34.95999 33.72948 2140 ft 214 kts 227°
2026-05-07 16:35 34.94966 33.71681 1968 ft 208 kts 226°
2026-05-07 16:36 34.93952 33.70444 1581 ft 207 kts 226°
2026-05-07 16:36 34.92963 33.69236 1265 ft 193 kts 227°
2026-05-07 16:36 34.92053 33.68121 1025 ft 178 kts 224°
2026-05-07 16:36 34.91239 33.67123 840 ft 158 kts 224°
2026-05-07 16:37 34.90500 33.66218 641 ft 143 kts 224°
2026-05-07 16:37 34.89815 33.65379 473 ft 135 kts 224°
2026-05-07 16:37 34.89162 33.64581 312 ft 129 kts 225°
2026-05-07 16:37 34.88523 33.63800 137 ft 130 kts 224°
2026-05-07 16:38 34.87892 33.63026 28 ft 123 kts 225°
2026-05-07 16:38 34.87386 33.62406 16 ft 81 kts 225°
2026-05-07 16:38 34.87107 33.62067 22 ft 32 kts 225°
2026-05-07 16:38 34.86990 33.61848 24 ft 30 kts 250°
2026-05-07 16:39 34.86929 33.61604 19 ft 31 kts 255°
2026-05-07 16:39 34.86883 33.61397 18 ft 13 kts 269°
2026-05-07 16:39 34.86944 33.61308 20 ft 12 kts 319°
2026-05-07 16:39 34.86999 33.61240 20 ft 11 kts 314°
2026-05-07 16:40 34.87038 33.61175 20 ft 9 kts 270°
2026-05-07 16:40 34.87002 33.61117 20 ft 7 kts 224°
2026-05-07 16:40 34.86994 33.61108 20 ft 0 kts 224°